Hourly Weather Zomin

Today, 27 July, Tuesday

Time Temperature Precipitation Wind Pressure Humidity
00:00 +31°C° 0 mm 3 mps 698 mmHg 28%
01:00 +30°C° 0 mm 3 mps 697 mmHg 30%
02:00 +30°C° 0 mm 4 mps 697 mmHg 32%
03:00 +29°C° 0 mm 4 mps 697 mmHg 33%
04:00 +28°C° 0 mm 4 mps 697 mmHg 34%
05:00 +27°C° 0 mm 4 mps 697 mmHg 35%
06:00 +28°C° 0 mm 4 mps 697 mmHg 31%
07:00 +29°C° 0 mm 4 mps 698 mmHg 28%
08:00 +30°C° 0 mm 4 mps 698 mmHg 24%
09:00 +32°C° 0 mm 4 mps 698 mmHg 23%
10:00 +34°C° 0 mm 4 mps 698 mmHg 21%
11:00 +36°C° 0 mm 4 mps 698 mmHg 19%
12:00 +37°C° 0 mm 4 mps 698 mmHg 18%
13:00 +38°C° 0 mm 3 mps 697 mmHg 18%
14:00 +39°C° 0 mm 3 mps 697 mmHg 17%
15:00 +39°C° 0 mm 3 mps 696 mmHg 17%
16:00 +41°C° 0 mm 4 mps 696 mmHg 17%
17:00 +41°C° 0 mm 4 mps 696 mmHg 16%
18:00 +38°C° 0 mm 4 mps 696 mmHg 18%
19:00 +36°C° 0 mm 4 mps 696 mmHg 20%
20:00 +34°C° 0 mm 4 mps 696 mmHg 22%
21:00 +33°C° 0 mm 3 mps 696 mmHg 22%
22:00 +31°C° 0 mm 3 mps 696 mmHg 22%
23:00 +29°C° 0 mm 3 mps 697 mmHg 22%

Tomorrow, 28 July, Wednesday

Time Temperature Precipitation Wind Pressure Humidity
00:00 +28°C° 0 mm 3 mps 696 mmHg 22%
01:00 +27°C° 0 mm 3 mps 696 mmHg 22%
02:00 +26°C° 0 mm 3 mps 696 mmHg 22%
03:00 +26°C° 0 mm 3 mps 696 mmHg 23%
04:00 +25°C° 0 mm 3 mps 696 mmHg 24%
05:00 +24°C° 0 mm 3 mps 696 mmHg 25%
06:00 +25°C° 0 mm 3 mps 696 mmHg 24%
07:00 +26°C° 0 mm 3 mps 696 mmHg 22%
08:00 +27°C° 0 mm 4 mps 697 mmHg 21%
09:00 +29°C° 0 mm 4 mps 697 mmHg 20%
10:00 +32°C° 0 mm 4 mps 697 mmHg 19%
11:00 +33°C° 0 mm 4 mps 697 mmHg 18%
12:00 +34°C° 0 mm 4 mps 696 mmHg 16%
13:00 +36°C° 0 mm 3 mps 696 mmHg 14%
14:00 +37°C° 0 mm 3 mps 696 mmHg 13%
15:00 +37°C° 0 mm 3 mps 696 mmHg 12%
16:00 +37°C° 0 mm 3 mps 695 mmHg 11%
17:00 +37°C° 0 mm 3 mps 695 mmHg 11%
18:00 +35°C° 0 mm 3 mps 695 mmHg 12%
19:00 +32°C° 0 mm 2 mps 695 mmHg 13%
20:00 +30°C° 0 mm 2 mps 695 mmHg 14%
21:00 +30°C° 0 mm 2 mps 696 mmHg 15%
22:00 +29°C° 0 mm 2 mps 696 mmHg 15%
23:00 +28°C° 0 mm 3 mps 696 mmHg 15%

Day after tomorrow, 29 July, Thursday

Time Temperature Precipitation Wind Pressure Humidity
00:00 +27°C° 0 mm 3 mps 696 mmHg 16%
01:00 +27°C° 0 mm 2 mps 696 mmHg 17%
02:00 +26°C° 0 mm 2 mps 696 mmHg 18%
03:00 +25°C° 0 mm 2 mps 696 mmHg 18%
04:00 +25°C° 0 mm 2 mps 696 mmHg 19%
05:00 +24°C° 0 mm 2 mps 696 mmHg 19%
06:00 +26°C° 0 mm 2 mps 696 mmHg 18%
07:00 +27°C° 0 mm 2 mps 697 mmHg 17%
08:00 +29°C° 0 mm 2 mps 697 mmHg 16%
09:00 +30°C° 0 mm 3 mps 697 mmHg 15%
10:00 +33°C° 0 mm 3 mps 697 mmHg 14%
11:00 +35°C° 0 mm 3 mps 698 mmHg 13%
12:00 +35°C° 0 mm 4 mps 698 mmHg 12%
13:00 +36°C° 0 mm 4 mps 697 mmHg 11%
14:00 +37°C° 0 mm 4 mps 697 mmHg 11%
15:00 +37°C° 0 mm 4 mps 697 mmHg 11%
16:00 +37°C° 0 mm 5 mps 697 mmHg 12%
17:00 +37°C° 0 mm 5 mps 697 mmHg 12%
18:00 +35°C° 0 mm 4 mps 697 mmHg 15%
19:00 +31°C° 0 mm 3 mps 698 mmHg 18%
20:00 +29°C° 0 mm 2 mps 698 mmHg 21%
21:00 +28°C° 0 mm 2 mps 698 mmHg 22%
22:00 +27°C° 0 mm 2 mps 699 mmHg 23%
23:00 +26°C° 0 mm 2 mps 699 mmHg 24%

30 July, Friday

Time Temperature Precipitation Wind Pressure Humidity
00:00 +26°C° 0 mm 2 mps 699 mmHg 24%
01:00 +25°C° 0 mm 2 mps 699 mmHg 25%
02:00 +24°C° 0 mm 2 mps 699 mmHg 25%
03:00 +24°C° 0 mm 2 mps 699 mmHg 25%
04:00 +23°C° 0 mm 2 mps 699 mmHg 26%
05:00 +23°C° 0 mm 2 mps 699 mmHg 26%
06:00 +24°C° 0 mm 2 mps 699 mmHg 24%
07:00 +25°C° 0 mm 3 mps 699 mmHg 22%
08:00 +26°C° 0 mm 3 mps 700 mmHg 20%
09:00 +28°C° 0 mm 3 mps 700 mmHg 19%
10:00 +29°C° 0 mm 3 mps 700 mmHg 18%
11:00 +31°C° 0 mm 3 mps 700 mmHg 17%
12:00 +33°C° 0 mm 3 mps 699 mmHg 16%
13:00 +34°C° 0 mm 2 mps 699 mmHg 15%
14:00 +35°C° 0 mm 2 mps 699 mmHg 14%
15:00 +35°C° 0 mm 2 mps 699 mmHg 13%
16:00 +36°C° 0 mm 2 mps 698 mmHg 13%
17:00 +36°C° 0 mm 2 mps 698 mmHg 13%
18:00 +34°C° 0 mm 2 mps 698 mmHg 15%
19:00 +31°C° 0 mm 1 mps 698 mmHg 17%
20:00 +29°C° 0 mm 1 mps 697 mmHg 18%
21:00 +28°C° 0 mm 1 mps 697 mmHg 19%
22:00 +28°C° 0 mm 1 mps 697 mmHg 20%
23:00 +27°C° 0 mm 2 mps 697 mmHg 20%

31 July, Saturday

Time Temperature Precipitation Wind Pressure Humidity
00:00 +27°C° 0 mm 2 mps 697 mmHg 22%
01:00 +26°C° 0 mm 2 mps 697 mmHg 23%
02:00 +25°C° 0 mm 2 mps 697 mmHg 24%
03:00 +25°C° 0 mm 2 mps 697 mmHg 25%
04:00 +24°C° 0 mm 2 mps 697 mmHg 26%
05:00 +24°C° 0 mm 2 mps 697 mmHg 26%
06:00 +25°C° 0 mm 2 mps 697 mmHg 24%
07:00 +27°C° 0 mm 3 mps 698 mmHg 21%
08:00 +28°C° 0 mm 3 mps 698 mmHg 19%
09:00 +30°C° 0 mm 3 mps 698 mmHg 18%
10:00 +33°C° 0 mm 3 mps 698 mmHg 16%
11:00 +34°C° 0 mm 3 mps 698 mmHg 15%
12:00 +35°C° 0 mm 3 mps 698 mmHg 14%
13:00 +36°C° 0 mm 3 mps 698 mmHg 13%
14:00 +37°C° 0 mm 3 mps 697 mmHg 13%
15:00 +37°C° 0 mm 2 mps 697 mmHg 12%
16:00 +38°C° 0 mm 2 mps 697 mmHg 12%
17:00 +37°C° 0 mm 1 mps 697 mmHg 12%
18:00 +35°C° 0 mm 1 mps 697 mmHg 14%
19:00 +33°C° 0 mm 1 mps 696 mmHg 16%
20:00 +29°C° 0 mm 0 mps 696 mmHg 18%
21:00 +30°C° 0 mm 1 mps 696 mmHg 18%
22:00 +30°C° 0 mm 1 mps 696 mmHg 18%
23:00 +29°C° 0 mm 2 mps 695 mmHg 19%

1 August, Sunday

Time Temperature Precipitation Wind Pressure Humidity
00:00 +29°C° 0 mm 2 mps 695 mmHg 20%
01:00 +28°C° 0 mm 2 mps 695 mmHg 20%
02:00 +27°C° 0 mm 2 mps 695 mmHg 21%
03:00 +27°C° 0 mm 2 mps 695 mmHg 22%
04:00 +26°C° 0 mm 3 mps 696 mmHg 23%
05:00 +26°C° 0 mm 3 mps 696 mmHg 24%
06:00 +27°C° 0 mm 3 mps 696 mmHg 21%
07:00 +29°C° 0 mm 3 mps 696 mmHg 18%
08:00 +30°C° 0 mm 4 mps 697 mmHg 15%
09:00 +33°C° 0 mm 4 mps 697 mmHg 14%
10:00 +34°C° 0 mm 4 mps 697 mmHg 12%
11:00 +36°C° 0 mm 5 mps 697 mmHg 11%
12:00 +37°C° 0 mm 4 mps 697 mmHg 11%
13:00 +38°C° 0 mm 4 mps 697 mmHg 10%
14:00 +39°C° 0 mm 3 mps 697 mmHg 10%
15:00 +39°C° 0 mm 3 mps 696 mmHg 10%
16:00 +39°C° 0 mm 3 mps 696 mmHg 9%
17:00 +39°C° 0 mm 3 mps 696 mmHg 9%
18:00 +37°C° 0 mm 3 mps 696 mmHg 10%
19:00 +35°C° 0 mm 2 mps 696 mmHg 11%
20:00 +32°C° 0 mm 2 mps 696 mmHg 12%
21:00 +31°C° 0 mm 2 mps 696 mmHg 13%
22:00 +31°C° 0 mm 3 mps 696 mmHg 13%
23:00 +30°C° 0 mm 3 mps 696 mmHg 13%
Show more